Regional Weather Roundup
Issued by NWS

Home | Current Version | Previous Version | Text Only | Print | Product List | Glossary Off
Versions: 1 2 3 4 5 6 7 8 9 10 11 12 13 14 15 16 17 18 19 20 21 22 23 24 25 26 27 28 29 30 31 32 33 34 35 36 37 38 39 40 41 42 43 44 45 46 47 48 49 50

000
ASUS43 KBIS 162202
RWRND

NORTH DAKOTA REGIONAL WEATHER ROUNDUP
NATIONAL WEATHER SERVICE BISMARCK ND
500 PM CDT MON OCT 16 2017

NOTE: "FAIR" INDICATES FEW OR NO CLOUDS BELOW 12,000 FEET WITH NO
SIGNIFICANT WEATHER AND/OR OBSTRUCTIONS TO VISIBILITY.


NDZ001>003-009>011-017-162300-
NORTHWEST NORTH DAKOTA

CITY           SKY/WX    TMP DP  RH WIND       PRES   REMARKS
WILLISTON      CLOUDY    68  32  26 W12       29.93S
MINOT          CLOUDY    67  35  30 W15       29.89R
MINOT AFB      CLOUDY    66  35  31 NW12      29.87R
$$

NDZ018>021-031>035-040>046-162300-
SOUTHWEST NORTH DAKOTA

CITY           SKY/WX    TMP DP  RH WIND       PRES   REMARKS
BISMARCK       SUNNY     72  31  22 W17G24    29.93R
DICKINSON      SUNNY     68  30  24 W17G26    29.96S
GARRISON         N/A     65  30  27 NW18G24   29.91R
HETTINGER ARPT SUNNY     69  29  22 W20       30.01F
$$

NDZ004>008-012>016-024-026-027-054-162300-
NORTHEAST NORTH DAKOTA

CITY           SKY/WX    TMP DP  RH WIND       PRES   REMARKS
GRAND FORKS    MOSUNNY   71  36  27 W16G28    29.82S
GRND FRKS AFB  SUNNY     69  34  27 W17       29.83R
DEVILS LAKE    CLOUDY    65  36  34 W13       29.86S
$$

NDZ022-023-025-028>030-036>039-047>053-162300-
SOUTHEAST NORTH DAKOTA

CITY           SKY/WX    TMP DP  RH WIND       PRES   REMARKS
FARGO          SUNNY     70  41  34 SW14      29.85F
JAMESTOWN      SUNNY     70  34  26 NW17G25   29.88S
$$




USA.gov is the U.S. government's official web portal to all federal, state and local government web resources and services.